Regional Weather Roundup
Issued by NWS

Home | Current Version | Previous Version | Text Only | Print | Product List | Glossary On
Versions: 1 2 3 4 5 6 7 8 9 10 11 12 13 14 15 16 17 18 19 20 21 22 23 24 25 26 27 28 29 30 31 32 33 34 35 36 37 38 39 40 41 42 43 44 45 46 47 48 49 50
000
ASUS43 KMKX 282121
RWRWI

WISCONSIN REGIONAL WEATHER ROUNDUP
NATIONAL WEATHER SERVICE MILWAUKEE/SULLIVAN WI
400 PM CDT THU JUL 28 2016

NOTE: "FAIR" INDICATES FEW OR NO CLOUDS BELOW 12,000 FEET WITH NO
SIGNIFICANT WEATHER AND/OR OBSTRUCTIONS TO VISIBILITY.

WIZ001-002-006>008-014>016-023>028-282200-
NORTHWEST WISCONSIN

CITY           SKY/WX    TMP DP  RH WIND       PRES   REMARKS
SUPERIOR ARPT  CLOUDY    66  60  80 E12       30.09S
ASHLAND        CLOUDY    70  58  65 NE13      30.09S
HAYWARD        MOSUNNY   72  58  61 NE13      30.05F
SIREN          MOSUNNY   75  55  50 NE10      30.04F
CUMBERLAND     PTSUNNY   70  54  56 NE10      30.03S
RICE LAKE      CLOUDY    72  58  62 N12       30.03S
CHETEK         CLOUDY    75  59  58 MISG      30.02S
LADYSMITH      PTSUNNY   74  58  56 NE10G17   30.03F
EAU CLAIRE     CLOUDY    69  63  81 E14       29.99F
MENOMONIE      CLOUDY    71  70  98 NE6       30.01S
NEW RICHMOND   CLOUDY    75  56  51 NE7G17    30.02S
OSCEOLA        CLOUDY    73  59  61 N10       30.06R
$$

WIZ003>005-009-010-017-018-282200-
NORTH CENTRAL WISCONSIN

CITY           SKY/WX    TMP DP  RH WIND       PRES   REMARKS
MANITOWISH WTR CLOUDY    70  57  62 N10       30.06R
ARBOR VITAE    CLOUDY    72  57  57 NE7       30.05S
WOODRUFF       CLOUDY    72  57  57 NE7       30.05S
RHINELANDER    CLOUDY    72  56  57 NE8       30.04S
EAGLE RIVER    CLOUDY    73  51  45 E12       30.04S
LAND O LAKES   CLOUDY    71  55  56 NE8       30.06S
PHILLIPS       PTSUNNY   72  57  59 NE7       30.03F
TOMAHAWK       CLOUDY    71  59  65 NE3       30.03F
MEDFORD        CLOUDY    64  63  96 E3        30.02F
MERRILL        CLOUDY    66  63  88 CALM      30.02F
$$

WIZ029-030-035-036-043>047-282200-
CENTRAL WISCONSIN

CITY           SKY/WX    TMP DP  RH WIND       PRES   REMARKS
WAUSAU         CLOUDY    64  58  80 CALM      30.00F
MOSINEE        PTSUNNY   64  61  88 NE9       30.01F
MARSHFIELD     LGT RAIN  63  59  87 NE10      29.99S
STEVENS POINT  CLOUDY    65  59  82 NE12      30.00S
WAUPACA        CLOUDY    70  65  84 N8        29.98S
WAUTOMA        CLOUDY    70  64  81 NE10      29.96S
WISC RAPIDS    CLOUDY    69  61  75 E10G18    29.99S
CAMP DOUGLAS   NOT AVBL
$$

WIZ011>013-019>022-031-037>040-048>050-282200-
NORTHEAST WISCONSIN

CITY           SKY/WX    TMP DP  RH WIND       PRES   REMARKS
ANTIGO         CLOUDY    67  61  78 CALM      30.03S
SHAWANO        CLOUDY    70  63  78 E8        30.00F
OCONTO         CLOUDY    65  65 100 NE5       29.99F
STURGEON BAY   CLOUDY    68  61  78 NE6       30.00S
GREEN BAY      CLOUDY    68  66  93 NE16      29.98F
MANITOWOC      CLOUDY    69  59  70 NE12G18   29.97F
APPLETON       CLOUDY    70  61  73 NE13G20   29.96F
CLINTONVILLE   CLOUDY    64  59  82 E10       29.99F
OSHKOSH        CLOUDY    71  63  75 NE17      29.95F
$$

WIZ032>034-041-042-053>061-282200-
SOUTHWEST WISCONSIN

CITY           SKY/WX    TMP DP  RH WIND       PRES   REMARKS
LA CROSSE      CLOUDY    67  63  87 N8        29.96R
SPARTA         CLOUDY    65  63  93 N8        29.96S
VIROQUA        CLOUDY    68  68 100 NE8       29.95R
BOSCOBEL       CLOUDY    76  69  79 VRB5      29.90S
PRAIRIE DU CHI CLOUDY    76  66  72 N12G18    29.90S
PLATTEVILLE    PTSUNNY   80  71  75 NW8       29.91R HX  84
$$

WIZ056-057-062-063-064-067-068-282200-
SOUTH CENTRAL WISCONSIN

CITY           SKY/WX    TMP DP  RH WIND       PRES   REMARKS
REEDSBURG      CLOUDY    72  67  84 NE5       29.93S
BARABOO/DELLS  CLOUDY    72  65  78 NE7       29.94R
LONE ROCK      CLOUDY    74  67  78 NE10      29.92R
MINERAL POINT  CLOUDY    77  70  78 NE12      29.91R
MADISON        CLOUDY    76  67  73 E16       29.91R
MIDDLETON      CLOUDY    76  68  76 NE12      29.92R
WATERTOWN      PTSUNNY   73  69  85 NE10      29.93R
MONROE         DRIZZLE   72  64  78 NE6       29.90S
JANESVILLE     PTSUNNY   75  70  83 E12       29.89F
$$

WIZ051-052-058>065-066-070>072-282200-
SOUTHEAST WISCONSIN

CITY           SKY/WX    TMP DP  RH WIND       PRES   REMARKS
MILWAUKEE      CLOUDY    69  63  81 N13G22    29.93R
WAUKESHA       PTSUNNY   70  63  78 E9        29.95R
MILWAUKEE/TIMM CLOUDY   N/A N/A N/A NE10      29.95R
RACINE         CLOUDY    70  63  78 NE10      29.95R
BURLINGTON     LGT RAIN  65  63  91 CALM      29.92F
KENOSHA        CLOUDY    69  63  81 CALM      29.93F
FOND DU LAC    CLOUDY    75  63  66 NE14      29.95S
SHEBOYGAN      PTSUNNY   72  62  71 NE15      29.96S
WEST BEND      CLOUDY    68  61  77 NE10G16   29.95S
JUNEAU         CLOUDY    73  65  76 E13       29.95R
$$

LSZ147-162-282200-
LAKE SUPERIOR

STATION/POSITION TIME  TEMP    WIND        PRES    WAVE
                       AIR SEA DIR/SP/G            HT/PER
                 (UTC) (F)     (DEG/KT/KT) (MB)    (FT/S)
W MID LAKE BUOY  2050   61 61   80/ 10/ 12 1018.7F   2/ 4
DEVILS ISLAND    2100   63      80/ 15/ 16 1018.9F
PORT WING        1940   61      30/ 14/ 15 1019.0F
SAXON HARBOR     2040   68      50/ 16/ 19 1017.9F
$$

LMZ867-665-643>646-282200-
LAKE MICHIGAN

STATION/POSITION TIME  TEMP    WIND        PRES    WAVE
                       AIR SEA DIR/SP/G            HT/PER
                 (UTC) (F)     (DEG/KT/KT) (MB)    (FT/S)
CHAMBERS ISLAND  2000   70      30/  6/  9 1015.9S
N MID LAKE BUOY  2050   69 71   10/  8/ 10 1014.8F   1
NORTHPORT PIER   2000   70      80/  6/ 10 1015.6S
SISTER BAY       2021   76      30/  7/  9   N/A
ALGOMA LAKESHORE 2013           30/ 13/ 18   N/A
KEWAUNEE LAKESHO 2000   64      20/  7/ 10 1014.8S
SHEBOYGAN LAKESH 2100   62      10/ 16/ 17 1014.9R
PORT WASHINGTON  2040   69      20/ 10/ 17 1014.9R
ATWATER BUOY     2100   63 63  360/ 14/ 17 1015.1R
MILWAUKEE LAKESH 2010   67     330/ 15/ 20   N/A
S MID LAKE BUOY  2050   76 78  360/  8/ 10 1011.8R   2/ 5
KENOSHA   LAKESH 2100   74     330/ 11/ 14 1013.2R
$$

TC  - TEMPERATURE IN CELSIUS
VSB - VISIBILITY IN STATUTE MILES
WCI - WIND CHILL INDEX
HX  - HEAT INDEX




USA.gov is the U.S. government's official web portal to all federal, state and local government web resources and services.